[ hide orbit diagram ]
For accurate long-term ephemerides, please instead use our Horizons system.This orbit viewer was implemented using two-body methods, and hence should not be used for determining accurate long-term trajectories (over several years or decades) or planetary encounter circumstances.
Orbital Elements at Epoch 2459200.5 (2020-Dec-17.0) TDB
Reference: JPL 41 (heliocentric ecliptic J2000)
Element | Value | Uncertainty (1-sigma) | Units |
e | .2102991412233583 | 1.5472e-08 | |
a | 2.324089397720748 | 5.3147e-09 | au |
q | 1.835335393253763 | 3.5876e-08 | au |
i | 4.925123137279628 | 8.6265e-07 | deg |
node | 10.58054519634642 | 9.3529e-06 | deg |
peri | 313.8657681977458 | 1.1128e-05 | deg |
M | 70.78083973464096 | 3.5039e-06 | deg |
tp | 2458946.056781115652 (2020-Apr-06.55678112) | 1.2357e-05 | TDB |
period | 1294.12930309635 3.54 | 4.4391e-06 1.215e-08 | d yr |
n | .2781793126379717 | 9.542e-10 | deg/d |
Q | 2.812843402187734 | 6.4323e-09 | au |
|
| | Orbit Determination Parameters
Additional Information
|
[ show covariance matrix ]
Physical Parameter Table
Parameter |
Symbol |
Value |
Units |
Sigma |
Reference |
Notes |
absolute magnitude |
H |
12.7 |
|
n/a |
MPO473807 |
|
rotation period |
rot_per |
2.737485 |
h |
n/a |
LCDB (Rev. 2020-October); Warner et al., 2009 |
Published Reference List: [Oey, J.; Inasaridze, R.Y.; Kvaratskhelia, O.I.; Ayvazian, V.; et al. (2013) Minor Planet Bull. 40, 169-172.] |
|
3034 Climenhaga (A917 SE) Discovered 1917-Sep-24 by Wolf, M. at Heidelberg |
Reference: DISCOVERY.DB | Last Updated: 2003-08-29 |
|
[ show close-approach data ]
Alternate Designations
A917 SE = 1949 UE1 = 1952 KZ = 1970 OC = 1974 VN2 = 1974 XE = 1979 BD1 = 1981 XD |
|
|